Time,TemperatureF,DewpointF,PressureIn,WindDirection,WindDirectionDegrees,WindSpeedMPH,WindSpeedGustMPH,Humidity,HourlyPrecipIn,Conditions,Clouds,dailyrainin,SoftwareType,DateUTC
2013-07-11 00:00:00,64.8,60.5,29.89,West,267,0.0,1.0,86,0.00,,SKC,0.00,VWS V14.01,2013-07-11 05:00:00,
2013-07-11 00:01:00,64.8,60.5,29.89,West,267,0.0,0.0,86,0.00,,SKC,0.00,VWS V14.01,2013-07-11 05:01:00,
2013-07-11 00:06:00,64.5,60.5,29.89,West,267,0.0,0.0,87,0.00,,SKC,0.00,VWS V14.01,2013-07-11 05:06:00,
2013-07-11 00:11:00,64.3,60.3,29.89,West,267,0.0,0.0,87,0.00,,SKC,0.00,VWS V14.01,2013-07-11 05:11:00,
2013-07-11 00:16:00,64.2,60.6,29.89,West,267,0.0,0.0,88,0.00,,SKC,0.00,VWS V14.01,2013-07-11 05:16:00,
2013-07-11 00:21:00,64.1,60.5,29.89,West,267,0.0,0.0,88,0.00,,SKC,0.00,VWS V14.01,2013-07-11 05:21:00,
2013-07-11 00:26:00,64.0,60.4,29.89,West,267,0.0,0.0,88,0.00,,SKC,0.00,VWS V14.01,2013-07-11 05:26:00,
2013-07-11 00:30:00,65.8,60.5,29.88,West,267,0.0,1.0,83,0.00,,SKC,0.00,VWS V14.01,2013-07-11 05:30:00,
2013-07-11 00:31:00,64.0,60.7,29.89,West,267,0.0,0.0,89,0.00,,SKC,0.00,VWS V14.01,2013-07-11 05:31:00,
2013-07-11 00:36:00,64.0,60.7,29.89,West,267,0.0,0.0,89,0.00,,SKC,0.00,VWS V14.01,2013-07-11 05:36:00,
2013-07-11 00:41:00,63.8,60.5,29.90,West,267,0.0,0.0,89,0.00,,SKC,0.00,VWS V14.01,2013-07-11 05:41:00,
2013-07-11 00:47:00,63.7,60.4,29.90,West,267,0.0,0.0,89,0.00,,SKC,0.00,VWS V14.01,2013-07-11 05:47:00,
2013-07-11 00:52:00,63.4,60.4,29.90,West,267,0.0,0.0,90,0.00,,SKC,0.00,VWS V14.01,2013-07-11 05:52:00,
2013-07-11 00:57:00,63.3,60.6,29.90,West,267,0.0,1.0,91,0.00,,SKC,0.00,VWS V14.01,2013-07-11 05:57:00,
2013-07-11 01:00:00,64.8,60.5,29.89,West,267,0.0,1.0,86,0.00,,SKC,0.00,VWS V14.01,2013-07-11 06:00:00,
2013-07-11 01:02:00,63.1,60.4,29.90,West,267,0.0,0.0,91,0.00,,SKC,0.00,VWS V14.01,2013-07-11 06:02:00,
2013-07-11 01:07:00,63.1,60.7,29.90,West,267,0.0,2.0,92,0.00,,SKC,0.00,VWS V14.01,2013-07-11 06:07:00,
2013-07-11 01:12:00,62.9,60.2,29.90,West,267,0.0,2.0,91,0.00,,SKC,0.00,VWS V14.01,2013-07-11 06:12:00,
2013-07-11 01:17:00,62.7,60.0,29.90,West,267,1.0,4.0,91,0.00,,SKC,0.00,VWS V14.01,2013-07-11 06:17:00,
2013-07-11 01:22:00,62.6,59.6,29.90,West,267,0.0,4.0,90,0.00,,SKC,0.00,VWS V14.01,2013-07-11 06:22:00,
2013-07-11 01:27:00,62.5,59.5,29.90,West,267,0.0,4.0,90,0.00,,SKC,0.00,VWS V14.01,2013-07-11 06:27:00,
2013-07-11 01:30:00,64.0,60.4,29.89,West,267,0.0,0.0,88,0.00,,SKC,0.00,VWS V14.01,2013-07-11 06:30:00,
2013-07-11 01:32:00,62.5,59.5,29.90,West,267,0.0,0.0,90,0.00,,SKC,0.00,VWS V14.01,2013-07-11 06:32:00,
2013-07-11 01:37:00,62.4,59.7,29.90,West,267,0.0,0.0,91,0.00,,SKC,0.00,VWS V14.01,2013-07-11 06:37:00,
2013-07-11 01:42:00,62.4,59.7,29.90,West,267,0.0,0.0,91,0.00,,SKC,0.00,VWS V14.01,2013-07-11 06:42:00,
2013-07-11 01:47:00,62.3,59.6,29.90,West,267,0.0,0.0,91,0.00,,SKC,0.00,VWS V14.01,2013-07-11 06:47:00,
2013-07-11 01:52:00,62.2,59.8,29.91,West,267,0.0,0.0,92,0.00,,SKC,0.00,VWS V14.01,2013-07-11 06:52:00,
2013-07-11 01:57:00,62.1,59.8,29.91,West,267,0.0,0.0,92,0.00,,SKC,0.00,VWS V14.01,2013-07-11 06:57:00,
2013-07-11 02:00:00,63.2,60.5,29.90,West,267,0.0,1.0,91,0.00,,SKC,0.00,VWS V14.01,2013-07-11 07:00:00,
2013-07-11 02:02:00,62.0,59.7,29.91,West,267,0.0,0.0,92,0.00,,SKC,0.00,VWS V14.01,2013-07-11 07:02:00,
2013-07-11 02:07:00,61.8,59.5,29.91,West,267,0.0,0.0,92,0.00,,SKC,0.00,VWS V14.01,2013-07-11 07:07:00,
2013-07-11 02:12:00,61.7,59.4,29.91,West,267,0.0,0.0,92,0.00,,SKC,0.00,VWS V14.01,2013-07-11 07:12:00,
2013-07-11 02:17:00,61.6,59.3,29.91,West,267,0.0,0.0,92,0.00,,SKC,0.00,VWS V14.01,2013-07-11 07:17:00,
2013-07-11 02:22:00,61.6,59.6,29.91,West,267,0.0,0.0,93,0.00,,SKC,0.00,VWS V14.01,2013-07-11 07:22:00,
2013-07-11 02:27:00,61.5,59.5,29.91,West,267,0.0,0.0,93,0.00,,SKC,0.00,VWS V14.01,2013-07-11 07:27:00,
2013-07-11 02:30:00,62.5,59.5,29.90,West,267,0.0,4.0,90,0.00,,SKC,0.00,VWS V14.01,2013-07-11 07:30:00,
2013-07-11 02:32:00,61.4,59.4,29.91,West,267,0.0,1.0,93,0.00,,SKC,0.00,VWS V14.01,2013-07-11 07:32:00,
2013-07-11 02:37:00,61.3,59.6,29.91,West,267,0.0,1.0,94,0.00,,SKC,0.00,VWS V14.01,2013-07-11 07:37:00,
2013-07-11 02:42:00,61.2,59.5,29.91,West,267,0.0,1.0,94,0.00,,SKC,0.00,VWS V14.01,2013-07-11 07:42:00,
2013-07-11 02:47:00,61.3,59.6,29.91,West,267,0.0,1.0,94,0.00,,SKC,0.00,VWS V14.01,2013-07-11 07:47:00,
2013-07-11 02:52:00,61.2,59.5,29.91,West,267,0.0,1.0,94,0.00,,SKC,0.00,VWS V14.01,2013-07-11 07:52:00,
2013-07-11 02:57:00,61.2,59.5,29.91,West,267,0.0,1.0,94,0.00,,SKC,0.00,VWS V14.01,2013-07-11 07:57:00,
2013-07-11 03:00:00,62.0,59.7,29.91,West,267,0.0,0.0,92,0.00,,SKC,0.00,VWS V14.01,2013-07-11 08:00:00,
2013-07-11 03:02:00,61.2,59.5,29.91,West,267,0.0,0.0,94,0.00,,SKC,0.00,VWS V14.01,2013-07-11 08:02:00,
2013-07-11 03:07:00,61.1,59.4,29.91,West,267,0.0,0.0,94,0.00,,SKC,0.00,VWS V14.01,2013-07-11 08:07:00,
2013-07-11 03:12:00,60.9,59.2,29.91,West,267,0.0,0.0,94,0.00,,SKC,0.00,VWS V14.01,2013-07-11 08:12:00,
2013-07-11 03:17:00,60.7,59.0,29.91,West,267,0.0,0.0,94,0.00,,SKC,0.00,VWS V14.01,2013-07-11 08:17:00,
2013-07-11 03:22:00,60.4,58.7,29.92,West,267,0.0,0.0,94,0.00,,SKC,0.00,VWS V14.01,2013-07-11 08:22:00,
2013-07-11 03:28:00,60.2,58.5,29.92,West,267,0.0,0.0,94,0.00,,SKC,0.00,VWS V14.01,2013-07-11 08:28:00,
2013-07-11 03:30:00,61.4,59.4,29.91,West,267,1.0,1.0,93,0.00,,SKC,0.00,VWS V14.01,2013-07-11 08:30:00,
2013-07-11 03:33:00,60.2,58.5,29.92,West,267,0.0,0.0,94,0.00,,SKC,0.00,VWS V14.01,2013-07-11 08:33:00,
2013-07-11 03:38:00,60.2,58.8,29.92,West,267,0.0,0.0,95,0.00,,SKC,0.00,VWS V14.01,2013-07-11 08:38:00,
2013-07-11 03:43:00,60.1,58.4,29.92,West,267,0.0,0.0,94,0.00,,SKC,0.00,VWS V14.01,2013-07-11 08:43:00,
2013-07-11 03:48:00,60.0,58.3,29.92,West,267,0.0,0.0,94,0.00,,SKC,0.00,VWS V14.01,2013-07-11 08:48:00,
2013-07-11 03:53:00,60.0,58.3,29.93,West,267,0.0,0.0,94,0.00,,SKC,0.00,VWS V14.01,2013-07-11 08:53:00,
2013-07-11 03:58:00,59.7,58.3,29.93,West,267,0.0,0.0,95,0.00,,SKC,0.00,VWS V14.01,2013-07-11 08:58:00,
2013-07-11 04:00:00,61.2,59.5,29.91,West,267,0.0,1.0,94,0.00,,SKC,0.00,VWS V14.01,2013-07-11 09:00:00,
2013-07-11 04:03:00,59.6,58.2,29.92,West,267,0.0,0.0,95,0.00,,SKC,0.00,VWS V14.01,2013-07-11 09:03:00,
2013-07-11 04:08:00,59.3,57.6,29.92,West,267,0.0,0.0,94,0.00,,SKC,0.00,VWS V14.01,2013-07-11 09:08:00,
2013-07-11 04:13:00,59.1,57.4,29.92,West,267,0.0,0.0,94,0.00,,SKC,0.00,VWS V14.01,2013-07-11 09:13:00,
2013-07-11 04:18:00,59.0,57.6,29.92,West,267,0.0,0.0,95,0.00,,SKC,0.00,VWS V14.01,2013-07-11 09:18:00,
2013-07-11 04:23:00,59.0,57.6,29.93,West,267,0.0,0.0,95,0.00,,SKC,0.00,VWS V14.01,2013-07-11 09:23:00,
2013-07-11 04:28:00,59.0,57.6,29.93,West,267,0.0,0.0,95,0.00,,SKC,0.00,VWS V14.01,2013-07-11 09:28:00,
2013-07-11 04:30:00,60.2,58.5,29.92,West,267,0.0,0.0,94,0.00,,SKC,0.00,VWS V14.01,2013-07-11 09:30:00,
2013-07-11 04:33:00,59.0,57.6,29.93,West,267,0.0,0.0,95,0.00,,SKC,0.00,VWS V14.01,2013-07-11 09:33:00,
2013-07-11 04:38:00,59.0,57.6,29.93,West,267,0.0,0.0,95,0.00,,SKC,0.00,VWS V14.01,2013-07-11 09:38:00,
2013-07-11 04:43:00,59.0,57.6,29.93,West,267,0.0,0.0,95,0.00,,SKC,0.00,VWS V14.01,2013-07-11 09:43:00,
2013-07-11 04:48:00,59.0,57.6,29.93,West,267,0.0,0.0,95,0.00,,SKC,0.00,VWS V14.01,2013-07-11 09:48:00,
2013-07-11 04:53:00,59.0,57.6,29.93,West,267,0.0,0.0,95,0.00,,SKC,0.00,VWS V14.01,2013-07-11 09:53:00,
2013-07-11 04:58:00,59.0,57.6,29.93,West,267,0.0,0.0,95,0.00,,SKC,0.00,VWS V14.01,2013-07-11 09:58:00,
2013-07-11 05:00:00,59.6,58.2,29.92,West,267,0.0,0.0,95,0.00,,SKC,0.00,VWS V14.01,2013-07-11 10:00:00,
2013-07-11 05:03:00,59.0,57.6,29.93,West,267,0.0,0.0,95,0.00,,SKC,0.00,VWS V14.01,2013-07-11 10:03:00,
2013-07-11 05:08:00,59.0,57.6,29.94,West,267,0.0,0.0,95,0.00,,SKC,0.00,VWS V14.01,2013-07-11 10:08:00,
2013-07-11 05:13:00,59.0,57.6,29.94,West,267,0.0,0.0,95,0.00,,SKC,0.00,VWS V14.01,2013-07-11 10:13:00,
2013-07-11 05:18:00,59.0,57.6,29.94,West,267,0.0,0.0,95,0.00,,SKC,0.00,VWS V14.01,2013-07-11 10:18:00,
2013-07-11 05:23:00,59.0,57.6,29.94,West,267,0.0,0.0,95,0.00,,SKC,0.00,VWS V14.01,2013-07-11 10:23:00,
2013-07-11 05:28:00,59.0,57.6,29.94,West,267,0.0,0.0,95,0.00,,SKC,0.00,VWS V14.01,2013-07-11 10:28:00,
2013-07-11 05:30:00,59.0,57.6,29.93,West,267,0.0,1.0,95,0.00,,SKC,0.00,VWS V14.01,2013-07-11 10:30:00,
2013-07-11 05:33:00,59.0,57.6,29.94,West,267,0.0,0.0,95,0.00,,SKC,0.00,VWS V14.01,2013-07-11 10:33:00,
2013-07-11 05:38:00,59.0,57.6,29.94,West,267,0.0,0.0,95,0.00,,SKC,0.00,VWS V14.01,2013-07-11 10:38:00,
2013-07-11 05:43:00,59.0,57.6,29.94,West,267,0.0,0.0,95,0.00,,SKC,0.00,VWS V14.01,2013-07-11 10:43:00,
2013-07-11 05:48:00,59.0,57.6,29.95,West,267,0.0,0.0,95,0.00,,SKC,0.00,VWS V14.01,2013-07-11 10:48:00,
2013-07-11 05:53:00,59.0,57.6,29.95,West,267,0.0,0.0,95,0.00,,SKC,0.00,VWS V14.01,2013-07-11 10:53:00,
2013-07-11 05:59:00,58.7,57.3,29.95,West,267,0.0,0.0,95,0.00,,SKC,0.00,VWS V14.01,2013-07-11 10:59:00,
2013-07-11 06:00:00,58.9,57.5,29.93,West,267,0.0,0.0,95,0.00,,SKC,0.00,VWS V14.01,2013-07-11 11:00:00,
2013-07-11 06:04:00,58.7,57.3,29.95,West,267,0.0,0.0,95,0.00,,SKC,0.00,VWS V14.01,2013-07-11 11:04:00,
2013-07-11 06:09:00,58.8,57.4,29.95,West,267,0.0,0.0,95,0.00,,SKC,0.00,VWS V14.01,2013-07-11 11:09:00,
2013-07-11 06:14:00,58.7,57.3,29.95,West,267,0.0,0.0,95,0.00,,SKC,0.00,VWS V14.01,2013-07-11 11:14:00,
2013-07-11 06:19:00,59.0,57.6,29.95,West,267,0.0,0.0,95,0.00,,SKC,0.00,VWS V14.01,2013-07-11 11:19:00,
2013-07-11 06:24:00,59.0,57.6,29.95,West,267,0.0,0.0,95,0.00,,SKC,0.00,VWS V14.01,2013-07-11 11:24:00,
2013-07-11 06:29:00,59.0,57.6,29.95,West,267,0.0,0.0,95,0.00,,SKC,0.00,VWS V14.01,2013-07-11 11:29:00,
2013-07-11 06:30:00,59.0,57.6,29.94,West,267,0.0,0.0,95,0.00,,SKC,0.00,VWS V14.01,2013-07-11 11:30:00,
2013-07-11 06:34:00,59.0,57.6,29.95,West,267,0.0,0.0,95,0.00,,SKC,0.00,VWS V14.01,2013-07-11 11:34:00,
2013-07-11 06:39:00,59.0,57.6,29.95,West,267,0.0,0.0,95,0.00,,SKC,0.00,VWS V14.01,2013-07-11 11:39:00,
2013-07-11 06:44:00,59.0,57.6,29.95,West,267,0.0,0.0,95,0.00,,SKC,0.00,VWS V14.01,2013-07-11 11:44:00,
2013-07-11 06:49:00,59.2,57.8,29.95,West,267,0.0,0.0,95,0.00,,SKC,0.00,VWS V14.01,2013-07-11 11:49:00,
2013-07-11 06:54:00,59.7,58.3,29.95,West,267,0.0,0.0,95,0.00,,SKC,0.00,VWS V14.01,2013-07-11 11:54:00,
2013-07-11 06:59:00,60.0,58.6,29.96,West,267,0.0,0.0,95,0.00,,SKC,0.00,VWS V14.01,2013-07-11 11:59:00,
2013-07-11 07:00:00,58.7,57.3,29.95,West,267,0.0,0.0,95,0.00,,SKC,0.00,VWS V14.01,2013-07-11 12:00:00,
2013-07-11 07:04:00,60.3,58.9,29.96,West,267,0.0,0.0,95,0.00,,SKC,0.00,VWS V14.01,2013-07-11 12:04:00,
2013-07-11 07:09:00,60.8,59.4,29.96,West,267,0.0,0.0,95,0.00,,SKC,0.00,VWS V14.01,2013-07-11 12:09:00,
2013-07-11 07:14:00,61.3,59.9,29.96,West,267,0.0,1.0,95,0.00,,SKC,0.00,VWS V14.01,2013-07-11 12:14:00,
2013-07-11 07:19:00,61.9,60.5,29.96,West,267,1.0,1.0,95,0.00,,SKC,0.00,VWS V14.01,2013-07-11 12:19:00,
2013-07-11 07:24:00,62.5,61.0,29.96,West,267,0.0,1.0,95,0.00,,SKC,0.00,VWS V14.01,2013-07-11 12:24:00,
2013-07-11 07:29:00,62.9,61.2,29.96,West,267,0.0,1.0,94,0.00,,SKC,0.00,VWS V14.01,2013-07-11 12:29:00,
2013-07-11 07:30:00,59.0,57.6,29.95,West,267,0.0,0.0,95,0.00,,SKC,0.00,VWS V14.01,2013-07-11 12:30:00,
2013-07-11 07:34:00,63.5,61.8,29.96,West,267,0.0,1.0,94,0.00,,SKC,0.00,VWS V14.01,2013-07-11 12:34:00,
2013-07-11 07:39:00,64.0,61.9,29.96,West,267,0.0,1.0,93,0.00,,SKC,0.00,VWS V14.01,2013-07-11 12:39:00,
2013-07-11 07:44:00,64.5,62.1,29.96,West,267,0.0,3.0,92,0.00,,SKC,0.00,VWS V14.01,2013-07-11 12:44:00,
2013-07-11 07:49:00,65.0,62.3,29.96,West,267,2.0,4.0,91,0.00,,SKC,0.00,VWS V14.01,2013-07-11 12:49:00,
2013-07-11 07:54:00,65.3,62.3,29.95,West,267,0.0,4.0,90,0.00,,SKC,0.00,VWS V14.01,2013-07-11 12:54:00,
2013-07-11 08:00:00,65.7,62.0,29.96,West,267,0.0,4.0,88,0.00,,SKC,0.00,VWS V14.01,2013-07-11 13:00:00,
2013-07-11 08:07:00,66.1,62.5,29.96,West,267,0.0,1.0,88,0.00,,SKC,0.00,VWS V14.01,2013-07-11 13:07:00,
2013-07-11 08:12:00,66.4,62.4,29.96,West,267,0.0,4.0,87,0.00,,SKC,0.00,VWS V14.01,2013-07-11 13:12:00,
2013-07-11 08:17:00,66.6,62.3,29.96,West,266,0.0,4.0,86,0.00,,SKC,0.00,VWS V14.01,2013-07-11 13:17:00,
2013-07-11 08:22:00,66.7,62.7,29.96,West,265,0.0,4.0,87,0.00,,SKC,0.00,VWS V14.01,2013-07-11 13:22:00,
2013-07-11 08:28:00,67.2,62.9,29.95,West,263,0.0,4.0,86,0.00,,SKC,0.00,VWS V14.01,2013-07-11 13:28:00,
2013-07-11 08:30:00,63.0,61.2,29.95,West,267,0.0,1.0,94,0.00,,SKC,0.00,VWS V14.01,2013-07-11 13:30:00,
2013-07-11 08:34:00,67.9,63.2,29.95,West,263,0.0,0.0,85,0.00,,SKC,0.00,VWS V14.01,2013-07-11 13:34:00,
2013-07-11 08:39:00,68.4,63.4,29.95,West,263,0.0,1.0,84,0.00,,SKC,0.00,VWS V14.01,2013-07-11 13:39:00,
2013-07-11 08:44:00,68.9,63.5,29.95,West,263,0.0,1.0,83,0.00,,SKC,0.00,VWS V14.01,2013-07-11 13:44:00,
2013-07-11 08:49:00,69.2,62.8,29.95,West,261,0.0,1.0,80,0.00,,SKC,0.00,VWS V14.01,2013-07-11 13:49:00,
2013-07-11 08:56:00,69.6,63.2,29.95,WSW,258,0.0,1.0,80,0.00,,SKC,0.00,VWS V14.01,2013-07-11 13:56:00,
2013-07-11 09:00:00,65.7,62.0,29.96,West,267,0.0,4.0,88,0.00,,SKC,0.00,VWS V14.01,2013-07-11 14:00:00,
2013-07-11 09:01:00,69.9,62.7,29.95,WSW,258,0.0,1.0,78,0.00,,SKC,0.00,VWS V14.01,2013-07-11 14:01:00,
2013-07-11 09:06:00,70.1,62.6,29.95,WSW,252,0.0,1.0,77,0.00,,SKC,0.00,VWS V14.01,2013-07-11 14:06:00,
2013-07-11 09:14:00,70.5,62.6,29.95,WSW,242,0.0,2.0,76,0.00,,SKC,0.00,VWS V14.01,2013-07-11 14:14:00,
2013-07-11 09:23:00,70.9,62.2,29.95,WSW,238,0.0,2.0,74,0.00,,SKC,0.00,VWS V14.01,2013-07-11 14:23:00,
2013-07-11 09:29:00,71.2,62.9,29.95,SW,234,0.0,2.0,75,0.00,,SKC,0.00,VWS V14.01,2013-07-11 14:29:00,
2013-07-11 09:30:00,67.5,63.2,29.95,West,263,0.0,4.0,86,0.00,,SKC,0.00,VWS V14.01,2013-07-11 14:30:00,
2013-07-11 09:34:00,71.5,62.4,29.95,SW,228,0.0,3.0,73,0.00,,SKC,0.00,VWS V14.01,2013-07-11 14:34:00,
2013-07-11 09:42:00,72.0,62.1,29.94,SW,226,2.0,4.0,71,0.00,,SKC,0.00,VWS V14.01,2013-07-11 14:42:00,
2013-07-11 09:48:00,72.3,62.8,29.94,SW,226,0.0,4.0,72,0.00,,SKC,0.00,VWS V14.01,2013-07-11 14:48:00,
2013-07-11 09:53:00,72.5,62.6,29.94,SSW,208,3.0,5.0,71,0.00,,SKC,0.00,VWS V14.01,2013-07-11 14:53:00,
2013-07-11 09:59:00,72.8,61.6,29.94,SSW,206,0.0,5.0,68,0.00,,SKC,0.00,VWS V14.01,2013-07-11 14:59:00,
2013-07-11 10:00:00,69.8,62.6,29.95,WSW,258,0.0,1.0,78,0.00,,SKC,0.00,VWS V14.01,2013-07-11 15:00:00,
2013-07-11 10:04:00,73.3,62.5,29.94,SSW,204,2.0,4.0,69,0.00,,SKC,0.00,VWS V14.01,2013-07-11 15:04:00,
2013-07-11 10:09:00,73.7,62.5,29.94,South,182,4.0,6.0,68,0.00,,SKC,0.00,VWS V14.01,2013-07-11 15:09:00,
2013-07-11 10:14:00,74.1,62.9,29.94,South,169,5.0,6.0,68,0.00,,SKC,0.00,VWS V14.01,2013-07-11 15:14:00,
2013-07-11 10:19:00,74.4,62.7,29.94,SSE,167,0.0,6.0,67,0.00,,SKC,0.00,VWS V14.01,2013-07-11 15:19:00,
2013-07-11 10:25:00,74.6,62.9,29.94,SSE,165,3.0,6.0,67,0.00,,SKC,0.00,VWS V14.01,2013-07-11 15:25:00,
2013-07-11 10:30:00,74.8,63.1,29.93,SSE,165,0.0,6.0,67,0.00,,SKC,0.00,VWS V14.01,2013-07-11 15:30:00,
2013-07-11 10:36:00,74.9,63.2,29.94,SSE,165,0.0,0.0,67,0.00,,SKC,0.00,VWS V14.01,2013-07-11 15:36:00,
2013-07-11 10:42:00,75.1,63.0,29.93,SSE,164,4.0,6.0,66,0.00,,SKC,0.00,VWS V14.01,2013-07-11 15:42:00,
2013-07-11 10:48:00,75.4,62.4,29.93,SSE,164,0.0,6.0,64,0.00,,SKC,0.00,VWS V14.01,2013-07-11 15:48:00,
2013-07-11 10:53:00,75.8,63.6,29.93,SSE,164,0.0,6.0,66,0.00,,SKC,0.00,VWS V14.01,2013-07-11 15:53:00,
2013-07-11 10:58:00,76.2,63.1,29.93,SSE,163,0.0,6.0,64,0.00,,SKC,0.00,VWS V14.01,2013-07-11 15:58:00,
2013-07-11 11:00:00,73.0,61.8,29.94,SSW,206,0.0,5.0,68,0.00,,SKC,0.00,VWS V14.01,2013-07-11 16:00:00,
2013-07-11 11:03:00,76.3,63.7,29.93,SSE,163,0.0,0.0,65,0.00,,SKC,0.00,VWS V14.01,2013-07-11 16:03:00,
2013-07-11 11:09:00,76.7,63.6,29.93,SSE,163,1.0,6.0,64,0.00,,SKC,0.00,VWS V14.01,2013-07-11 16:09:00,
2013-07-11 11:14:00,76.7,63.2,29.93,SSE,163,0.0,6.0,63,0.00,,SKC,0.00,VWS V14.01,2013-07-11 16:14:00,
2013-07-11 11:20:00,77.1,62.6,29.93,SSE,163,0.0,6.0,61,0.00,,SKC,0.00,VWS V14.01,2013-07-11 16:20:00,
2013-07-11 11:26:00,77.3,61.4,29.93,SSE,160,4.0,6.0,58,0.00,,SKC,0.00,VWS V14.01,2013-07-11 16:26:00,
2013-07-11 11:30:00,74.8,63.1,29.93,SSE,165,0.0,6.0,67,0.00,,SKC,0.00,VWS V14.01,2013-07-11 16:30:00,
2013-07-11 11:31:00,77.8,62.8,29.93,SSE,158,0.0,0.0,60,0.00,,SKC,0.00,VWS V14.01,2013-07-11 16:31:00,
2013-07-11 11:36:00,78.2,61.2,29.93,SE,144,0.0,7.0,56,0.00,,SKC,0.00,VWS V14.01,2013-07-11 16:36:00,
2013-07-11 11:41:00,78.8,62.3,29.92,SE,144,3.0,7.0,57,0.00,,SKC,0.00,VWS V14.01,2013-07-11 16:41:00,
2013-07-11 11:47:00,79.4,62.3,29.92,SE,139,0.0,8.0,56,0.00,,SKC,0.00,VWS V14.01,2013-07-11 16:47:00,
2013-07-11 11:52:00,79.9,63.3,29.93,SE,139,0.0,8.0,57,0.00,,SKC,0.00,VWS V14.01,2013-07-11 16:52:00,
2013-07-11 11:57:00,80.3,61.1,29.92,SE,139,0.0,8.0,52,0.00,,SKC,0.00,VWS V14.01,2013-07-11 16:57:00,
2013-07-11 12:00:00,76.3,64.1,29.93,SSE,163,0.0,6.0,66,0.00,,SKC,0.00,VWS V14.01,2013-07-11 17:00:00,
2013-07-11 12:02:00,80.7,62.0,29.92,SE,139,0.0,4.0,53,0.00,,SKC,0.00,VWS V14.01,2013-07-11 17:02:00,
2013-07-11 12:07:00,80.9,61.6,29.92,SE,139,1.0,6.0,52,0.00,,SKC,0.00,VWS V14.01,2013-07-11 17:07:00,
2013-07-11 12:13:00,80.2,61.5,29.92,SE,139,0.0,6.0,53,0.00,,SKC,0.00,VWS V14.01,2013-07-11 17:13:00,
2013-07-11 12:18:00,78.7,60.7,29.92,SE,140,0.0,6.0,54,0.00,,SKC,0.00,VWS V14.01,2013-07-11 17:18:00,
2013-07-11 12:24:00,79.0,63.9,29.92,SE,140,0.0,6.0,60,0.00,,SKC,0.00,VWS V14.01,2013-07-11 17:24:00,
2013-07-11 12:30:00,80.0,62.9,29.92,SE,140,0.0,6.0,56,0.00,,SKC,0.00,VWS V14.01,2013-07-11 17:30:00,
2013-07-11 12:35:00,80.5,62.3,29.91,SE,140,0.0,4.0,54,0.00,,SKC,0.00,VWS V14.01,2013-07-11 17:35:00,
2013-07-11 12:40:00,81.1,62.9,29.91,SE,140,0.0,4.0,54,0.00,,SKC,0.00,VWS V14.01,2013-07-11 17:40:00,
2013-07-11 12:45:00,81.4,62.1,29.91,SE,138,4.0,7.0,52,0.00,,SKC,0.00,VWS V14.01,2013-07-11 17:45:00,
2013-07-11 12:51:00,82.1,63.8,29.91,SE,138,0.0,7.0,54,0.00,,SKC,0.00,VWS V14.01,2013-07-11 17:51:00,
2013-07-11 12:56:00,82.4,64.1,29.91,SE,138,0.0,7.0,54,0.00,,SKC,0.00,VWS V14.01,2013-07-11 17:56:00,
2013-07-11 13:00:00,80.5,64.4,29.92,SE,139,0.0,8.0,58,0.00,,SKC,0.00,VWS V14.01,2013-07-11 18:00:00,
2013-07-11 13:01:00,83.0,65.7,29.91,SE,138,6.0,6.0,56,0.00,,SKC,0.00,VWS V14.01,2013-07-11 18:01:00,
2013-07-11 13:07:00,83.6,65.2,29.90,SE,138,0.0,6.0,54,0.00,,SKC,0.00,VWS V14.01,2013-07-11 18:07:00,
2013-07-11 13:13:00,83.6,64.1,29.90,SE,138,0.0,7.0,52,0.00,,SKC,0.00,VWS V14.01,2013-07-11 18:13:00,
2013-07-11 13:19:00,83.1,62.5,29.90,SE,138,4.0,7.0,50,0.00,,SKC,0.00,VWS V14.01,2013-07-11 18:19:00,
2013-07-11 13:25:00,83.5,62.3,29.89,SE,135,7.0,7.0,49,0.00,,SKC,0.00,VWS V14.01,2013-07-11 18:25:00,
2013-07-11 13:30:00,83.7,64.2,29.89,SE,132,0.0,7.0,52,0.00,,SKC,0.00,VWS V14.01,2013-07-11 18:30:00,
2013-07-11 13:36:00,83.8,63.8,29.89,SE,132,0.0,3.0,51,0.00,,SKC,0.00,VWS V14.01,2013-07-11 18:36:00,
2013-07-11 13:41:00,84.1,64.0,29.89,SE,125,11.0,11.0,51,0.00,,SKC,0.00,VWS V14.01,2013-07-11 18:41:00,
2013-07-11 13:47:00,84.2,65.2,29.89,SE,125,0.0,11.0,53,0.00,,SKC,0.00,VWS V14.01,2013-07-11 18:47:00,
2013-07-11 13:53:00,84.6,64.5,29.89,SE,125,0.0,11.0,51,0.00,,SKC,0.00,VWS V14.01,2013-07-11 18:53:00,
2013-07-11 13:58:00,84.6,66.1,29.89,SE,125,0.0,11.0,54,0.00,,SKC,0.00,VWS V14.01,2013-07-11 18:58:00,
2013-07-11 14:00:00,82.8,65.0,29.90,SE,138,0.0,7.0,55,0.00,,SKC,0.00,VWS V14.01,2013-07-11 19:00:00,
2013-07-11 14:04:00,84.7,63.5,29.89,SE,126,0.0,6.0,49,0.00,,SKC,0.00,VWS V14.01,2013-07-11 19:04:00,
2013-07-11 14:09:00,84.8,63.5,29.89,SE,126,0.0,6.0,49,0.00,,SKC,0.00,VWS V14.01,2013-07-11 19:09:00,
2013-07-11 14:15:00,85.4,66.3,29.89,SE,126,4.0,6.0,53,0.00,,SKC,0.00,VWS V14.01,2013-07-11 19:15:00,
2013-07-11 14:20:00,85.8,64.4,29.88,SE,126,0.0,6.0,49,0.00,,SKC,0.00,VWS V14.01,2013-07-11 19:20:00,
2013-07-11 14:25:00,86.1,65.3,29.88,SE,126,0.0,8.0,50,0.00,,SKC,0.00,VWS V14.01,2013-07-11 19:25:00,
2013-07-11 14:30:00,86.3,66.6,29.88,SE,126,0.0,8.0,52,0.00,,SKC,0.00,VWS V14.01,2013-07-11 19:30:00,
2013-07-11 14:35:00,85.0,63.7,29.88,SE,126,0.0,4.0,49,0.00,,SKC,0.00,VWS V14.01,2013-07-11 19:35:00,
2013-07-11 14:41:00,84.8,63.5,29.88,SE,127,4.0,7.0,49,0.00,,SKC,0.00,VWS V14.01,2013-07-11 19:41:00,
2013-07-11 14:46:00,84.6,65.1,29.88,SE,124,0.0,7.0,52,0.00,,SKC,0.00,VWS V14.01,2013-07-11 19:46:00,
2013-07-11 14:51:00,83.7,63.7,29.88,SE,124,0.0,7.0,51,0.00,,SKC,0.00,VWS V14.01,2013-07-11 19:51:00,
2013-07-11 14:57:00,83.6,62.4,29.88,SE,139,8.0,11.0,49,0.00,,SKC,0.00,VWS V14.01,2013-07-11 19:57:00,
2013-07-11 15:00:00,84.6,63.3,29.89,SE,126,0.0,11.0,49,0.00,,SKC,0.00,VWS V14.01,2013-07-11 20:00:00,
2013-07-11 15:04:00,82.7,63.3,29.88,SE,140,0.0,6.0,52,0.00,,SKC,0.00,VWS V14.01,2013-07-11 20:04:00,
2013-07-11 15:09:00,82.1,64.3,29.88,SE,139,4.0,7.0,55,0.00,,SKC,0.00,VWS V14.01,2013-07-11 20:09:00,
2013-07-11 15:14:00,82.0,64.3,29.88,SE,139,0.0,7.0,55,0.00,,SKC,0.00,VWS V14.01,2013-07-11 20:14:00,
2013-07-11 15:19:00,81.8,65.6,29.88,SE,139,4.0,7.0,58,0.00,,SKC,0.00,VWS V14.01,2013-07-11 20:19:00,
2013-07-11 15:25:00,81.9,65.2,29.88,SE,140,0.0,7.0,57,0.00,,SKC,0.00,VWS V14.01,2013-07-11 20:25:00,
2013-07-11 15:30:00,81.6,64.9,29.88,SE,140,0.0,7.0,57,0.00,,SKC,0.00,VWS V14.01,2013-07-11 20:30:00,
2013-07-11 15:35:00,81.5,64.8,29.87,SE,139,1.0,5.0,57,0.00,,SKC,0.00,VWS V14.01,2013-07-11 20:35:00,
2013-07-11 15:41:00,81.6,62.8,29.87,SE,138,0.0,5.0,53,0.00,,SKC,0.00,VWS V14.01,2013-07-11 20:41:00,
2013-07-11 15:46:00,81.6,62.3,29.87,SE,138,0.0,5.0,52,0.00,,SKC,0.00,VWS V14.01,2013-07-11 20:46:00,
2013-07-11 15:54:00,81.5,64.8,29.87,SE,138,0.0,7.0,57,0.00,,SKC,0.00,VWS V14.01,2013-07-11 20:54:00,
2013-07-11 15:59:00,81.3,64.1,29.87,SE,138,5.0,7.0,56,0.00,,SKC,0.00,VWS V14.01,2013-07-11 20:59:00,
2013-07-11 16:00:00,82.9,64.0,29.88,SE,138,1.0,11.0,53,0.00,,SKC,0.00,VWS V14.01,2013-07-11 21:00:00,
2013-07-11 16:05:00,81.1,62.9,29.87,SE,140,0.0,10.0,54,0.00,,SKC,0.00,VWS V14.01,2013-07-11 21:05:00,
2013-07-11 16:10:00,80.9,63.2,29.87,SE,140,5.0,10.0,55,0.00,,SKC,0.00,VWS V14.01,2013-07-11 21:10:00,
2013-07-11 16:15:00,80.8,63.7,29.86,ESE,115,0.0,10.0,56,0.00,,SKC,0.00,VWS V14.01,2013-07-11 21:15:00,
2013-07-11 16:20:00,80.9,63.2,29.86,ESE,115,2.0,10.0,55,0.00,,SKC,0.00,VWS V14.01,2013-07-11 21:20:00,
2013-07-11 16:26:00,80.9,63.8,29.86,ESE,119,1.0,10.0,56,0.00,,SKC,0.00,VWS V14.01,2013-07-11 21:26:00,
2013-07-11 16:30:00,81.6,64.9,29.88,SE,140,2.0,7.0,57,0.00,,SKC,0.00,VWS V14.01,2013-07-11 21:30:00,
2013-07-11 16:31:00,80.9,63.2,29.86,ESE,119,6.0,6.0,55,0.00,,SKC,0.00,VWS V14.01,2013-07-11 21:31:00,
2013-07-11 16:36:00,80.8,62.6,29.86,SE,137,0.0,11.0,54,0.00,,SKC,0.00,VWS V14.01,2013-07-11 21:36:00,
2013-07-11 16:41:00,80.8,63.1,29.85,SE,134,7.0,11.0,55,0.00,,SKC,0.00,VWS V14.01,2013-07-11 21:41:00,
2013-07-11 16:47:00,80.7,63.6,29.85,SE,135,0.0,11.0,56,0.00,,SKC,0.00,VWS V14.01,2013-07-11 21:47:00,
2013-07-11 16:52:00,80.7,65.1,29.85,SE,135,3.0,11.0,59,0.00,,SKC,0.00,VWS V14.01,2013-07-11 21:52:00,
2013-07-11 16:58:00,80.6,63.0,29.85,SE,135,2.0,11.0,55,0.00,,SKC,0.00,VWS V14.01,2013-07-11 21:58:00,
2013-07-11 17:00:00,81.3,63.6,29.87,SE,138,6.0,8.0,55,0.00,,SKC,0.00,VWS V14.01,2013-07-11 22:00:00,
2013-07-11 17:04:00,80.6,63.5,29.85,SE,134,1.0,7.0,56,0.00,,SKC,0.00,VWS V14.01,2013-07-11 22:04:00,
2013-07-11 17:09:00,80.6,63.5,29.85,SE,134,0.0,9.0,56,0.00,,SKC,0.00,VWS V14.01,2013-07-11 22:09:00,
2013-07-11 17:15:00,80.5,62.9,29.84,SE,134,0.0,9.0,55,0.00,,SKC,0.00,VWS V14.01,2013-07-11 22:15:00,
2013-07-11 17:20:00,80.5,63.4,29.85,SE,138,1.0,11.0,56,0.00,,SKC,0.00,VWS V14.01,2013-07-11 22:20:00,
2013-07-11 17:26:00,80.5,62.9,29.84,SE,136,0.0,11.0,55,0.00,,SKC,0.00,VWS V14.01,2013-07-11 22:26:00,
2013-07-11 17:30:00,80.9,64.2,29.86,ESE,120,6.0,10.0,57,0.00,,SKC,0.00,VWS V14.01,2013-07-11 22:30:00,
2013-07-11 17:31:00,80.5,63.4,29.84,SE,134,0.0,7.0,56,0.00,,SKC,0.00,VWS V14.01,2013-07-11 22:31:00,
2013-07-11 17:36:00,80.5,64.4,29.84,SE,134,0.0,7.0,58,0.00,,SKC,0.00,VWS V14.01,2013-07-11 22:36:00,
2013-07-11 17:42:00,80.5,64.4,29.84,SE,134,0.0,8.0,58,0.00,,SKC,0.00,VWS V14.01,2013-07-11 22:42:00,
2013-07-11 17:47:00,80.5,64.4,29.84,SE,133,5.0,8.0,58,0.00,,SKC,0.00,VWS V14.01,2013-07-11 22:47:00,
2013-07-11 17:53:00,80.3,63.2,29.84,SE,134,5.0,8.0,56,0.00,,SKC,0.00,VWS V14.01,2013-07-11 22:53:00,
2013-07-11 17:59:00,80.3,63.7,29.84,SE,135,1.0,8.0,57,0.00,,SKC,0.00,VWS V14.01,2013-07-11 22:59:00,
2013-07-11 18:00:00,80.6,64.0,29.85,SE,135,1.0,11.0,57,0.00,,SKC,0.00,VWS V14.01,2013-07-11 23:00:00,
2013-07-11 18:05:00,80.1,63.0,29.84,SE,136,8.0,10.0,56,0.00,,SKC,0.00,VWS V14.01,2013-07-11 23:05:00,
2013-07-11 18:10:00,80.1,64.5,29.84,SE,137,4.0,10.0,59,0.00,,SKC,0.00,VWS V14.01,2013-07-11 23:10:00,
2013-07-11 18:15:00,80.0,64.4,29.83,SE,137,0.0,10.0,59,0.00,,SKC,0.00,VWS V14.01,2013-07-11 23:15:00,
2013-07-11 18:23:00,80.1,64.5,29.83,SE,136,0.0,10.0,59,0.00,,SKC,0.00,VWS V14.01,2013-07-11 23:23:00,
2013-07-11 18:29:00,80.0,64.4,29.83,SE,138,1.0,10.0,59,0.00,,SKC,0.00,VWS V14.01,2013-07-11 23:29:00,
2013-07-11 18:30:00,80.5,63.4,29.84,SE,134,0.0,11.0,56,0.00,,SKC,0.00,VWS V14.01,2013-07-11 23:30:00,
2013-07-11 18:34:00,80.0,63.9,29.83,SE,134,0.0,6.0,58,0.00,,SKC,0.00,VWS V14.01,2013-07-11 23:34:00,
2013-07-11 18:41:00,80.0,63.9,29.83,SE,134,3.0,6.0,58,0.00,,SKC,0.00,VWS V14.01,2013-07-11 23:41:00,
2013-07-11 18:46:00,80.0,63.9,29.83,SE,134,0.0,6.0,58,0.00,,SKC,0.00,VWS V14.01,2013-07-11 23:46:00,
2013-07-11 18:52:00,79.9,62.8,29.83,SE,137,7.0,8.0,56,0.00,,SKC,0.00,VWS V14.01,2013-07-11 23:52:00,
2013-07-11 18:58:00,79.8,63.7,29.83,SE,137,1.0,8.0,58,0.00,,SKC,0.00,VWS V14.01,2013-07-11 23:58:00,
2013-07-11 19:00:00,80.2,63.6,29.84,SE,139,6.0,10.0,57,0.00,,SKC,0.00,VWS V14.01,2013-07-12 00:00:00,
2013-07-11 19:04:00,79.7,64.1,29.82,SE,137,0.0,7.0,59,0.00,,SKC,0.00,VWS V14.01,2013-07-12 00:04:00,
2013-07-11 19:09:00,79.6,64.0,29.83,SE,137,0.0,7.0,59,0.00,,SKC,0.00,VWS V14.01,2013-07-12 00:09:00,
2013-07-11 19:17:00,79.4,64.8,29.82,SE,136,0.0,7.0,61,0.00,,SKC,0.00,VWS V14.01,2013-07-12 00:17:00,
2013-07-11 19:23:00,79.3,63.7,29.82,SE,137,0.0,7.0,59,0.00,,SKC,0.00,VWS V14.01,2013-07-12 00:23:00,
2013-07-11 19:29:00,79.1,64.0,29.82,SE,138,6.0,8.0,60,0.00,,SKC,0.00,VWS V14.01,2013-07-12 00:29:00,
2013-07-11 19:30:00,80.0,63.9,29.83,SE,134,4.0,10.0,58,0.00,,SKC,0.00,VWS V14.01,2013-07-12 00:30:00,
2013-07-11 19:35:00,79.0,63.9,29.82,SE,138,0.0,6.0,60,0.00,,SKC,0.00,VWS V14.01,2013-07-12 00:35:00,
2013-07-11 19:40:00,78.8,63.8,29.82,SE,138,3.0,7.0,60,0.00,,SKC,0.00,VWS V14.01,2013-07-12 00:40:00,
2013-07-11 19:46:00,78.7,64.1,29.82,SE,138,4.0,7.0,61,0.00,,SKC,0.00,VWS V14.01,2013-07-12 00:46:00,
2013-07-11 19:51:00,78.7,64.1,29.81,SE,138,2.0,7.0,61,0.00,,SKC,0.00,VWS V14.01,2013-07-12 00:51:00,
2013-07-11 19:59:00,78.4,64.3,29.81,SE,138,0.0,7.0,62,0.00,,SKC,0.00,VWS V14.01,2013-07-12 00:59:00,
2013-07-11 20:00:00,79.8,63.7,29.83,SE,137,0.0,8.0,58,0.00,,SKC,0.00,VWS V14.01,2013-07-12 01:00:00,
2013-07-11 20:06:00,78.2,64.1,29.81,SE,138,4.0,5.0,62,0.00,,SKC,0.00,VWS V14.01,2013-07-12 01:06:00,
2013-07-11 20:12:00,78.0,63.9,29.81,SE,138,2.0,5.0,62,0.00,,SKC,0.00,VWS V14.01,2013-07-12 01:12:00,
2013-07-11 20:18:00,77.9,64.3,29.81,SE,138,4.0,5.0,63,0.00,,SKC,0.00,VWS V14.01,2013-07-12 01:18:00,
2013-07-11 20:23:00,77.7,64.6,29.80,SE,138,4.0,5.0,64,0.00,,SKC,0.00,VWS V14.01,2013-07-12 01:23:00,
2013-07-11 20:28:00,77.5,64.8,29.80,SE,138,3.0,5.0,65,0.00,,SKC,0.00,VWS V14.01,2013-07-12 01:28:00,
2013-07-11 20:30:00,79.1,64.0,29.82,SE,138,6.0,8.0,60,0.00,,SKC,0.00,VWS V14.01,2013-07-12 01:30:00,
2013-07-11 20:33:00,77.4,65.2,29.81,SE,138,2.0,5.0,66,0.00,,SKC,0.00,VWS V14.01,2013-07-12 01:33:00,
2013-07-11 20:38:00,77.2,65.0,29.81,SE,138,2.0,5.0,66,0.00,,SKC,0.00,VWS V14.01,2013-07-12 01:38:00,
2013-07-11 20:43:00,77.0,65.2,29.81,SE,138,3.0,5.0,67,0.00,,SKC,0.00,VWS V14.01,2013-07-12 01:43:00,
2013-07-11 20:50:00,76.7,64.5,29.81,SE,138,2.0,7.0,66,0.00,,SKC,0.00,VWS V14.01,2013-07-12 01:50:00,
2013-07-11 20:56:00,76.5,64.7,29.81,SE,138,0.0,7.0,67,0.00,,SKC,0.00,VWS V14.01,2013-07-12 01:56:00,
2013-07-11 21:00:00,78.4,64.3,29.81,SE,138,1.0,7.0,62,0.00,,SKC,0.00,VWS V14.01,2013-07-12 02:00:00,
2013-07-11 21:01:00,76.3,64.6,29.80,SE,138,0.0,4.0,67,0.00,,SKC,0.00,VWS V14.01,2013-07-12 02:01:00,
2013-07-11 21:07:00,76.1,64.4,29.80,SE,138,4.0,5.0,67,0.00,,SKC,0.00,VWS V14.01,2013-07-12 02:07:00,
2013-07-11 21:12:00,75.9,64.6,29.81,SE,138,1.0,5.0,68,0.00,,SKC,0.00,VWS V14.01,2013-07-12 02:12:00,
2013-07-11 21:18:00,75.7,64.8,29.81,SE,138,5.0,6.0,69,0.00,,SKC,0.00,VWS V14.01,2013-07-12 02:18:00,
2013-07-11 21:25:00,75.5,64.6,29.81,SE,138,1.0,8.0,69,0.00,,SKC,0.00,VWS V14.01,2013-07-12 02:25:00,
2013-07-11 21:30:00,75.4,64.9,29.81,SE,138,0.0,8.0,70,0.00,,SKC,0.00,VWS V14.01,2013-07-12 02:30:00,
2013-07-11 21:35:00,75.3,64.8,29.81,SE,138,3.0,5.0,70,0.00,,SKC,0.00,VWS V14.01,2013-07-12 02:35:00,
2013-07-11 21:41:00,75.1,64.7,29.81,SE,138,4.0,5.0,70,0.00,,SKC,0.00,VWS V14.01,2013-07-12 02:41:00,
2013-07-11 21:46:00,74.9,64.9,29.81,SE,138,4.0,6.0,71,0.00,,SKC,0.00,VWS V14.01,2013-07-12 02:46:00,
2013-07-11 21:51:00,74.8,64.8,29.81,SE,138,5.0,6.0,71,0.00,,SKC,0.00,VWS V14.01,2013-07-12 02:51:00,
2013-07-11 21:57:00,74.7,65.5,29.82,SE,138,5.0,7.0,73,0.00,,SKC,0.00,VWS V14.01,2013-07-12 02:57:00,
2013-07-11 22:00:00,76.3,64.6,29.81,SE,138,4.0,7.0,67,0.00,,SKC,0.00,VWS V14.01,2013-07-12 03:00:00,
2013-07-11 22:02:00,74.5,65.7,29.81,SE,138,2.0,5.0,74,0.00,,SKC,0.00,VWS V14.01,2013-07-12 03:02:00,
2013-07-11 22:07:00,74.4,65.6,29.81,SE,138,4.0,7.0,74,0.00,,SKC,0.00,VWS V14.01,2013-07-12 03:07:00,
2013-07-11 22:13:00,74.2,65.0,29.81,SE,140,6.0,9.0,73,0.00,,SKC,0.00,VWS V14.01,2013-07-12 03:13:00,
2013-07-11 22:18:00,74.0,64.8,29.81,SE,140,4.0,9.0,73,0.00,,SKC,0.00,VWS V14.01,2013-07-12 03:18:00,
2013-07-11 22:25:00,73.7,64.9,29.81,SE,140,5.0,9.0,74,0.00,,SKC,0.00,VWS V14.01,2013-07-12 03:25:00,
2013-07-11 22:30:00,75.4,64.9,29.81,SE,138,1.0,8.0,70,0.00,,SKC,0.00,VWS V14.01,2013-07-12 03:30:00,
2013-07-11 22:31:00,73.7,64.9,29.81,SE,141,3.0,3.0,74,0.00,,SKC,0.00,VWS V14.01,2013-07-12 03:31:00,
2013-07-11 22:36:00,73.6,64.8,29.81,SE,140,5.0,8.0,74,0.00,,SKC,0.00,VWS V14.01,2013-07-12 03:36:00,
2013-07-11 22:41:00,73.5,64.7,29.81,SE,140,5.0,8.0,74,0.00,,SKC,0.00,VWS V14.01,2013-07-12 03:41:00,
2013-07-11 22:48:00,73.4,64.6,29.81,SE,141,4.0,8.0,74,0.00,,SKC,0.00,VWS V14.01,2013-07-12 03:48:00,
2013-07-11 22:53:00,73.3,64.1,29.82,SE,142,0.0,8.0,73,0.00,,SKC,0.00,VWS V14.01,2013-07-12 03:53:00,
2013-07-11 22:58:00,73.3,64.1,29.82,SE,142,0.0,8.0,73,0.00,,SKC,0.00,VWS V14.01,2013-07-12 03:58:00,
2013-07-11 23:00:00,74.6,65.8,29.82,SE,138,4.0,7.0,74,0.00,,SKC,0.00,VWS V14.01,2013-07-12 04:00:00,
2013-07-11 23:01:00,73.2,64.0,29.81,SE,142,1.0,8.0,73,0.00,,SKC,0.00,VWS V14.01,2013-07-12 04:01:00,
2013-07-11 23:02:00,73.2,64.0,29.81,SE,142,1.0,7.0,73,0.00,,SKC,0.00,VWS V14.01,2013-07-12 04:02:00,
2013-07-11 23:05:00,73.1,63.9,29.81,SE,142,2.0,7.0,73,0.00,,SKC,0.00,VWS V14.01,2013-07-12 04:05:00,
2013-07-11 23:06:00,73.1,63.9,29.81,SE,142,2.0,7.0,73,0.00,,SKC,0.00,VWS V14.01,2013-07-12 04:06:00,
2013-07-11 23:11:00,73.0,63.8,29.81,SE,142,0.0,7.0,73,0.00,,SKC,0.00,VWS V14.01,2013-07-12 04:11:00,
2013-07-11 23:17:00,72.8,63.7,29.81,SE,142,0.0,7.0,73,0.00,,SKC,0.00,VWS V14.01,2013-07-12 04:17:00,
2013-07-11 23:22:00,72.7,63.5,29.81,SE,142,0.0,7.0,73,0.00,,SKC,0.00,VWS V14.01,2013-07-12 04:22:00,
2013-07-11 23:27:00,72.6,63.8,29.81,SE,142,0.0,7.0,74,0.00,,SKC,0.00,VWS V14.01,2013-07-12 04:27:00,
2013-07-11 23:30:00,73.6,64.8,29.81,SE,141,2.0,9.0,74,0.00,,SKC,0.00,VWS V14.01,2013-07-12 04:30:00,
2013-07-11 23:32:00,72.5,63.8,29.81,SE,142,0.0,0.0,74,0.00,,SKC,0.00,VWS V14.01,2013-07-12 04:32:00,
2013-07-11 23:37:00,72.3,63.6,29.81,SE,142,0.0,7.0,74,0.00,,SKC,0.00,VWS V14.01,2013-07-12 04:37:00,
2013-07-11 23:42:00,72.2,63.5,29.81,SE,142,0.0,7.0,74,0.00,,SKC,0.00,VWS V14.01,2013-07-12 04:42:00,
2013-07-11 23:47:00,72.1,63.4,29.81,SE,144,5.0,7.0,74,0.00,,SKC,0.00,VWS V14.01,2013-07-12 04:47:00,
2013-07-11 23:52:00,72.0,63.7,29.81,SE,142,7.0,7.0,75,0.00,,SKC,0.00,VWS V14.01,2013-07-12 04:52:00,
2013-07-11 23:57:00,71.9,63.5,29.81,SE,142,0.0,7.0,75,0.00,,SKC,0.00,VWS V14.01,2013-07-12 04:57:00,